TimeMST,TemperatureF,Dew PointF,Humidity,Sea Level PressureIn,VisibilityMPH,Wind Direction,Wind SpeedMPH,Gust SpeedMPH,PrecipitationIn,Events,Conditions,WindDirDegrees,DateUTC
12:53 AM,21.9,10.0,60,29.97,10.0,WSW,8.1,-,N/A,,Clear,250,2013-02-17 07:53:00
1:53 AM,21.9,10.0,60,29.95,10.0,WSW,5.8,-,N/A,,Clear,240,2013-02-17 08:53:00
2:53 AM,23.0,10.9,60,29.91,10.0,SW,8.1,-,N/A,,Clear,220,2013-02-17 09:53:00
3:53 AM,23.0,12.0,63,29.88,10.0,SW,6.9,-,N/A,,Clear,230,2013-02-17 10:53:00
4:53 AM,23.0,10.9,60,29.89,10.0,WSW,10.4,-,N/A,,Clear,250,2013-02-17 11:53:00
6:53 AM,26.1,12.9,58,29.87,10.0,SW,11.5,-,N/A,,Clear,230,2013-02-17 13:53:00
7:53 AM,37.9,16.0,41,29.81,10.0,SSW,6.9,-,N/A,,Clear,210,2013-02-17 14:53:00
8:53 AM,51.1,15.1,24,29.80,10.0,SW,13.8,-,N/A,,Clear,230,2013-02-17 15:53:00
9:53 AM,57.9,12.0,16,29.77,10.0,SW,18.4,-,N/A,,Clear,220,2013-02-17 16:53:00
10:53 AM,59.0,10.9,15,29.74,10.0,SW,19.6,-,N/A,,Clear,220,2013-02-17 17:53:00
11:53 AM,61.0,3.0,10,29.68,10.0,SW,19.6,-,N/A,,Clear,220,2013-02-17 18:53:00
12:53 PM,61.0,3.0,10,29.64,10.0,SW,19.6,-,N/A,,Clear,230,2013-02-17 19:53:00
1:53 PM,61.0,-0.9,8,29.60,10.0,SW,17.3,-,N/A,,Clear,220,2013-02-17 20:53:00
2:53 PM,61.0,-0.0,9,29.57,10.0,SW,20.7,-,N/A,,Clear,220,2013-02-17 21:53:00
3:53 PM,60.1,-2.0,8,29.54,10.0,SSW,11.5,-,N/A,,Clear,210,2013-02-17 22:53:00
4:53 PM,52.0,-2.0,11,29.54,10.0,South,9.2,-,N/A,,Clear,190,2013-02-17 23:53:00
5:53 PM,48.9,1.9,15,29.54,10.0,SSW,13.8,-,N/A,,Clear,200,2013-02-18 00:53:00
6:53 PM,46.0,3.0,17,29.52,10.0,South,12.7,-,N/A,,Clear,190,2013-02-18 01:53:00
7:53 PM,41.0,3.0,21,29.49,10.0,SSW,9.2,-,N/A,,Clear,200,2013-02-18 02:53:00
8:26 PM,48.2,12.2,24,29.55,10.0,North,25.3,39.1,N/A,,Clear,350,2013-02-18 03:26:00
8:53 PM,46.9,15.1,28,29.51,10.0,North,23.0,36.8,N/A,,Clear,350,2013-02-18 03:53:00
10:53 PM,37.0,23.0,57,29.57,10.0,North,27.6,39.1,N/A,,Clear,350,2013-02-18 05:53:00
11:53 PM,34.0,21.9,61,29.60,10.0,North,23.0,32.2,N/A,,Clear,350,2013-02-18 06:53:00